When you browse on this site, cookies collect data to enhance your experience and personalize the content and advertising you see.
Visit our Privacy Policy to learn more. By continuing to use the site, you agree to this use of cookies and data.
  • In United Kingdom
  • List of Countries
  • For 7 days
  • Water Temperature
  • Weather Map
  • Weather Widgets
  • user-avatar
    Login

    Hourly Weather Lewis

    Today, 28 May, Thursday

    Time Temperature Precipitation Wind Pressure Humidity
    00:00 +8°C° 1.2 mm 6 mps 764 mmHg 91%
    01:00 +9°C° 0.4 mm 6 mps 763 mmHg 93%
    02:00 +9°C° 0.4 mm 7 mps 763 mmHg 94%
    03:00 +10°C° 0.4 mm 7 mps 763 mmHg 95%
    04:00 +10°C° 0 mm 6 mps 763 mmHg 95%
    05:00 +10°C° 0 mm 6 mps 763 mmHg 94%
    06:00 +11°C° 0 mm 6 mps 763 mmHg 94%
    07:00 +11°C° 0 mm 6 mps 763 mmHg 91%
    08:00 +13°C° 0 mm 6 mps 763 mmHg 89%
    09:00 +14°C° 0 mm 6 mps 763 mmHg 86%
    10:00 +14°C° 0 mm 5 mps 763 mmHg 85%
    11:00 +14°C° 0 mm 5 mps 764 mmHg 83%
    12:00 +15°C° 0 mm 5 mps 764 mmHg 82%
    13:00 +15°C° 0 mm 5 mps 763 mmHg 80%
    14:00 +17°C° 0 mm 4 mps 763 mmHg 78%
    15:00 +18°C° 0 mm 4 mps 763 mmHg 76%
    16:00 +18°C° 0 mm 4 mps 763 mmHg 75%
    17:00 +18°C° 0 mm 3 mps 762 mmHg 74%
    18:00 +18°C° 0 mm 3 mps 762 mmHg 73%
    19:00 +17°C° 0 mm 3 mps 762 mmHg 77%
    20:00 +14°C° 0 mm 3 mps 762 mmHg 81%
    21:00 +13°C° 0 mm 3 mps 762 mmHg 85%
    22:00 +13°C° 0 mm 3 mps 761 mmHg 87%
    23:00 +13°C° 0 mm 3 mps 761 mmHg 88%

    Tomorrow, 29 May, Friday

    Time Temperature Precipitation Wind Pressure Humidity
    00:00 +12°C° 0 mm 3 mps 761 mmHg 90%
    01:00 +12°C° 0 mm 3 mps 760 mmHg 90%
    02:00 +13°C° 0 mm 4 mps 760 mmHg 90%
    03:00 +13°C° 0 mm 4 mps 760 mmHg 90%
    04:00 +13°C° 0 mm 4 mps 760 mmHg 87%
    05:00 +14°C° 0 mm 5 mps 760 mmHg 83%
    06:00 +14°C° 0 mm 5 mps 759 mmHg 80%
    07:00 +15°C° 0 mm 5 mps 759 mmHg 77%
    08:00 +16°C° 0 mm 6 mps 759 mmHg 75%
    09:00 +17°C° 0 mm 6 mps 759 mmHg 73%
    10:00 +19°C° 0 mm 6 mps 759 mmHg 69%
    11:00 +19°C° 0 mm 6 mps 759 mmHg 65%
    12:00 +20°C° 0 mm 6 mps 759 mmHg 61%
    13:00 +20°C° 0 mm 7 mps 758 mmHg 60%
    14:00 +21°C° 0 mm 7 mps 758 mmHg 58%
    15:00 +21°C° 0 mm 7 mps 758 mmHg 57%
    16:00 +20°C° 0 mm 7 mps 758 mmHg 57%
    17:00 +19°C° 0 mm 6 mps 758 mmHg 57%
    18:00 +17°C° 0 mm 6 mps 758 mmHg 57%
    19:00 +16°C° 0 mm 6 mps 757 mmHg 58%
    20:00 +15°C° 0 mm 6 mps 757 mmHg 60%
    21:00 +14°C° 0 mm 5 mps 757 mmHg 62%
    22:00 +14°C° 0 mm 5 mps 758 mmHg 62%
    23:00 +14°C° 0 mm 5 mps 758 mmHg 63%

    Day after tomorrow, 30 May, Saturday

    Time Temperature Precipitation Wind Pressure Humidity
    00:00 +13°C° 0 mm 5 mps 758 mmHg 63%
    01:00 +13°C° 0 mm 5 mps 758 mmHg 65%
    02:00 +13°C° 0 mm 5 mps 758 mmHg 68%
    03:00 +12°C° 0 mm 5 mps 758 mmHg 71%
    04:00 +13°C° 0 mm 4 mps 758 mmHg 71%
    05:00 +13°C° 0 mm 4 mps 758 mmHg 71%
    06:00 +13°C° 0 mm 4 mps 759 mmHg 72%
    07:00 +15°C° 0 mm 4 mps 759 mmHg 67%
    08:00 +17°C° 0 mm 4 mps 759 mmHg 62%
    09:00 +18°C° 0 mm 4 mps 759 mmHg 57%
    10:00 +18°C° 0 mm 4 mps 759 mmHg 56%
    11:00 +19°C° 0 mm 4 mps 759 mmHg 55%
    12:00 +20°C° 0 mm 4 mps 759 mmHg 54%
    13:00 +20°C° 0 mm 4 mps 759 mmHg 55%
    14:00 +20°C° 0 mm 3 mps 759 mmHg 56%
    15:00 +21°C° 0 mm 3 mps 758 mmHg 56%
    16:00 +20°C° 0 mm 3 mps 758 mmHg 59%
    17:00 +19°C° 0 mm 2 mps 758 mmHg 62%
    18:00 +19°C° 0 mm 1 mps 758 mmHg 64%
    19:00 +18°C° 0 mm 1 mps 758 mmHg 69%
    20:00 +16°C° 0 mm 1 mps 758 mmHg 73%
    21:00 +15°C° 0 mm 1 mps 758 mmHg 78%
    22:00 +15°C° 0 mm 2 mps 758 mmHg 78%
    23:00 +15°C° 0 mm 2 mps 758 mmHg 77%

    31 May, Sunday

    Time Temperature Precipitation Wind Pressure Humidity
    00:00 +15°C° 0 mm 2 mps 758 mmHg 77%
    01:00 +14°C° 0 mm 3 mps 758 mmHg 79%
    02:00 +13°C° 0 mm 3 mps 757 mmHg 80%
    03:00 +13°C° 0 mm 3 mps 757 mmHg 81%
    04:00 +13°C° 0 mm 3 mps 757 mmHg 79%
    05:00 +14°C° 0 mm 4 mps 758 mmHg 77%
    06:00 +14°C° 0 mm 4 mps 758 mmHg 75%
    07:00 +15°C° 0 mm 4 mps 758 mmHg 72%
    08:00 +17°C° 0 mm 4 mps 758 mmHg 68%
    09:00 +17°C° 0 mm 4 mps 758 mmHg 64%
    10:00 +17°C° 0 mm 5 mps 758 mmHg 62%
    11:00 +17°C° 0 mm 5 mps 758 mmHg 61%
    12:00 +17°C° 0 mm 5 mps 758 mmHg 59%
    13:00 +17°C° 0 mm 5 mps 758 mmHg 61%
    14:00 +17°C° 0 mm 5 mps 757 mmHg 63%
    15:00 +19°C° 0 mm 5 mps 757 mmHg 65%
    16:00 +17°C° 0 mm 5 mps 757 mmHg 68%
    17:00 +16°C° 0 mm 5 mps 757 mmHg 70%
    18:00 +16°C° 0 mm 5 mps 757 mmHg 72%
    19:00 +15°C° 0 mm 4 mps 757 mmHg 76%
    20:00 +14°C° 0 mm 4 mps 757 mmHg 80%
    21:00 +12°C° 0 mm 4 mps 757 mmHg 84%
    22:00 +12°C° 0 mm 3 mps 757 mmHg 86%
    23:00 +12°C° 0 mm 3 mps 757 mmHg 87%

    1 June, Monday

    Time Temperature Precipitation Wind Pressure Humidity
    00:00 +12°C° 0 mm 3 mps 756 mmHg 88%
    01:00 +12°C° 0.1 mm 3 mps 756 mmHg 89%
    02:00 +12°C° 0.1 mm 3 mps 756 mmHg 90%
    03:00 +12°C° 0.1 mm 2 mps 756 mmHg 91%
    04:00 +13°C° 0.3 mm 2 mps 756 mmHg 91%
    05:00 +13°C° 0.3 mm 2 mps 756 mmHg 91%
    06:00 +13°C° 0.3 mm 2 mps 756 mmHg 90%
    07:00 +13°C° 0.6 mm 2 mps 756 mmHg 91%
    08:00 +13°C° 0.6 mm 2 mps 756 mmHg 91%
    09:00 +13°C° 0.6 mm 2 mps 756 mmHg 91%
    10:00 +12°C° 0.7 mm 2 mps 756 mmHg 93%
    11:00 +12°C° 0.7 mm 2 mps 756 mmHg 94%
    12:00 +11°C° 0.7 mm 3 mps 756 mmHg 96%
    13:00 +10°C° 0.6 mm 3 mps 757 mmHg 95%
    14:00 +10°C° 0.6 mm 3 mps 757 mmHg 95%
    15:00 +10°C° 0.6 mm 3 mps 757 mmHg 94%
    16:00 +10°C° 0.2 mm 3 mps 757 mmHg 92%
    17:00 +10°C° 0.2 mm 3 mps 757 mmHg 90%
    18:00 +10°C° 0.2 mm 3 mps 757 mmHg 88%
    19:00 +9°C° 0 mm 3 mps 757 mmHg 89%
    20:00 +9°C° 0 mm 3 mps 758 mmHg 90%
    21:00 +8°C° 0 mm 2 mps 758 mmHg 91%
    22:00 +8°C° 0 mm 2 mps 758 mmHg 91%
    23:00 +8°C° 0 mm 2 mps 758 mmHg 92%

    2 June, Tuesday

    Time Temperature Precipitation Wind Pressure Humidity
    00:00 +7°C° 0 mm 2 mps 758 mmHg 92%
    01:00 +7°C° 0 mm 2 mps 758 mmHg 92%
    02:00 +7°C° 0 mm 2 mps 758 mmHg 91%
    03:00 +7°C° 0 mm 3 mps 758 mmHg 91%
    04:00 +7°C° 0 mm 3 mps 758 mmHg 89%
    05:00 +8°C° 0 mm 3 mps 758 mmHg 87%
    06:00 +8°C° 0 mm 3 mps 758 mmHg 85%
    07:00 +9°C° 0 mm 3 mps 758 mmHg 79%
    08:00 +10°C° 0 mm 4 mps 758 mmHg 74%
    09:00 +11°C° 0 mm 4 mps 758 mmHg 69%
    10:00 +11°C° 0 mm 4 mps 758 mmHg 66%
    11:00 +12°C° 0 mm 4 mps 758 mmHg 63%
    12:00 +12°C° 0 mm 4 mps 758 mmHg 60%
    13:00 +12°C° 0 mm 4 mps 758 mmHg 60%
    14:00 +12°C° 0 mm 4 mps 757 mmHg 59%
    15:00 +12°C° 0 mm 4 mps 757 mmHg 59%
    16:00 +12°C° 0 mm 3 mps 757 mmHg 60%
    17:00 +11°C° 0 mm 3 mps 757 mmHg 61%
    18:00 +11°C° 0 mm 3 mps 756 mmHg 62%
    19:00 +10°C° 0 mm 2 mps 756 mmHg 69%
    20:00 +10°C° 0 mm 1 mps 755 mmHg 75%
    21:00 +9°C° 0 mm 1 mps 755 mmHg 82%
    22:00 +8°C° 0 mm 1 mps 754 mmHg 83%
    23:00 +7°C° 0 mm 2 mps 754 mmHg 84%
    Show more